Tracking 28520 objects as of 1-Mar-2024
HD Live streaming from Space Station
objects crossing your sky now

STARLINK-5925

Track STARLINK-5925 now!
10-day predictions
STARLINK-5925 is classified as:


NORAD ID: 55945
Int'l Code: 2023-037AH
Perigee: 575.2 km
Apogee: 578.6 km
Inclination: 70.0 °
Period: 96.1 minutes
Semi major axis: 6947 km
RCS: Unknown
Launch date: March 17, 2023
Source: United States (US)
Launch site: AIR FORCE WESTERN TEST RANGE (AFWTR)
Your satellite tracking list
Your tracking list is empty




NASA's NSSDC Master Catalog

Two Line Element Set (TLE):
1 55945U 23037AH  24060.86959779  .00011173  00000-0  92461-3 0  9993
2 55945  70.0016 347.2235 0002457 265.3149  94.7730 14.99080759 53659
Source of the keplerian elements: AFSPC